Home   Weather   Talca   Past weeks

Flag for Chile Past Weather in Talca, Chile — Yesterday and Last 2 Weeks

Now
54 °F

Low clouds.


Feels Like: 50 °F
Forecast: 46 / 75 °F
Wind: 13 mph from North

Location: Concepcion Airport

Current Time: Sep 25, 2016 at 12:54:34 AM

Latest Report: Sep 25, 2016 at 12:00 AM


Visibility: N/A

Pressure: 30.04 "Hg

Humidity: 88%

Dew Point: 50 °F

Location of TalcaLocation

Past Weather in Talca — Graph

°F

Talca Temperature Yesterday

Maximum temperature yesterday: 72 °F (at 1:00 PM)
Minimum temperature yesterday: 46 °F (at 1:00 AM)
Average temperature yesterday: 55 °F

High & Low Weather Summary for the Past Weeks

 TemperatureHumidityPressure
High79 °F (Sep 22, 5:00 PM)100% (Sep 11, 9:00 PM)30.33 "Hg (Sep 11, 9:00 PM)
Low41 °F (Sep 14, 6:00 AM)19% (Sep 23, 6:00 AM)29.92 "Hg (Sep 23, 1:00 AM)
Average55 °F80%30.07 "Hg
* Reported Sep 10 12:00 AM — Sep 25 12:00 AM, Talca, Weather by CustomWeather, © 2016

Note: Actual official high and low records may vary slightly from our data, if they occured in-between our weather recording intervals... More about our weather records

Advertising

Talca Weather History for the Previous 24 Hours

Scroll right to see more
 ConditionsComfort  
Time TempWeatherWind HumidityBarometerVisibility
12:00 AM
Sun, Sep 25
54 °FLow clouds.13 mph88%30.04 "HgN/A
11:00 PM
Sat, Sep 24
54 °FLow clouds.13 mph88%30.04 "HgN/A
10:00 PM54 °FLow clouds.14 mph88%30.01 "HgN/A
9:00 PM54 °FLow clouds.15 mph88%30.01 "HgN/A
8:00 PM54 °FPassing clouds.14 mph88%30.01 "Hg5 mi
7:00 PM55 °FScattered clouds.14 mph88%29.98 "Hg5 mi
6:00 PM59 °FSunny.13 mph77%29.98 "Hg10 mi
5:00 PM63 °FSunny.13 mph73%29.98 "Hg10 mi
4:00 PM66 °FPassing clouds.9 mph68%29.98 "HgN/A
3:00 PM68 °FPassing clouds.7 mph56%29.98 "HgN/A
2:00 PM66 °FSunny.10 mph64%29.98 "Hg10 mi
1:00 PM72 °FPassing clouds.5 mph47%29.98 "HgN/A
12:00 PM66 °FClear.3 mph60%30.01 "Hg5 mi
11:00 AM59 °FScattered clouds.5 mph77%30.04 "Hg5 mi
10:00 AM52 °FFog.6 mph100%30.04 "Hg3 mi
9:00 AM48 °FCool.7 mph100%30.04 "Hg0 mi
8:00 AM48 °FCool.8 mph94%30.04 "Hg0 mi
7:00 AM50 °FClear.5 mph94%30.04 "Hg10 mi
6:00 AM46 °FClear.7 mph93%30.04 "Hg10 mi
5:00 AM48 °FClear.6 mph94%30.07 "Hg10 mi
4:00 AM48 °FClear.5 mph94%30.09 "Hg10 mi
3:00 AM48 °FClear.No wind94%30.12 "Hg10 mi
2:00 AM46 °FFog.2 mph100%30.12 "Hg2 mi
1:00 AM46 °FFog.2 mph100%30.15 "Hg2 mi
12:00 AM48 °FClear.2 mph94%30.15 "Hg10 mi
Weather by CustomWeather, © 2016

See weather overviewHow to use our weather pages